Richmond, VA

4:27 AM EDT on October 18, 2017 (GMT -0400)
Richmond International

Weather History for KRIC - October, 2012

Change the Weather History Date:

Tuesday, October 9, 2012

  Actual Average Record
Temperature  
Mean Temperature 54 °F 62 °F  
Max Temperature 59 °F 73 °F 95 °F (2007)
Min Temperature 48 °F 51 °F 32 °F (1935)
Degree Days  
Heating Degree Days 11 5  
Month to date heating degree days 42 35  
Since 1 July heating degree days 53 64  
Cooling Degree Days 0 2  
Month to date cooling degree days 46 20  
Year to date cooling degree days 1735 1524  
Growing Degree Days 4 (Base 50)    
Moisture  
Dew Point 50 °F    
Average Humidity 91    
Maximum Humidity 96    
Minimum Humidity 86    
Precipitation  
Precipitation 0.09 in 0.11 in 1.44 in (2013)
Month to date precipitation 1.05 0.89  
Year to date precipitation 30.47 35.01  
Snow  
Snow 0.00 in 0.00 in 0.00 in (2002)
Month to date snowfall 0.0 0.0  
Since 1 July snowfall 0.0 0.0  
Snow Depth 0.00 in    
Sea Level Pressure  
Sea Level Pressure 30.14 in    
Wind  
Wind Speed 8 mph (North)    
Max Wind Speed 15 mph    
Max Gust Speed 20 mph    
Visibility 8 miles    
Events Rain    
T = Trace of Precipitation, MM = Missing Value Source: NWS Daily Summary

Daily Weather History Graph

Daily Weather History Graph

Search for Another Location

Airport or City:

Trip Planner

Search our weather history database for the weather conditions in past years. The results will help you decide how hot, cold, wet, or windy it might be!

Date:

Astronomy

Oct. 09, 2012 Rise Set
Actual Time 7:12 AM EDT 6:39 PM EDT
Civil Twilight 6:46 AM EDT 7:06 PM EDT
Nautical Twilight 6:15 AM EDT 7:36 PM EDT
Astronomical Twilight 5:45 AM EDT 8:06 PM EDT
Moon 12:53 AM EDT (10/9) 2:59 PM EDT (10/9)
Length of Visible Light 12h 19m
Length of Day
11h 27m
Last Quarter, 37% of the Moon is Illuminated
Oct 9
Last Quarter
Oct 15
New
Oct 21
First Quarter
Oct 29
Full
Nov 6
Last Quarter

Hourly Weather History & Observations

Time (EDT) Temp. Dew Point Humidity Pressure Visibility Wind Dir Wind Speed Gust Speed Precip Events Conditions
12:07 AM 50.0 °F 46.4 °F 87% 30.17 in 10.0 mi NNW 11.5 mph - 0.00 in Rain Light Rain
12:54 AM 50.0 °F 46.0 °F 86% 30.17 in 10.0 mi North 9.2 mph - 0.00 in Rain Light Rain
1:54 AM 50.0 °F 46.0 °F 86% 30.16 in 10.0 mi North 12.7 mph - 0.00 in   Overcast
2:51 AM 48.2 °F 46.4 °F 93% 30.15 in 10.0 mi North 11.5 mph - N/A   Light Drizzle
2:54 AM 48.9 °F 46.0 °F 90% 30.17 in 10.0 mi NNW 13.8 mph - 0.00 in   Light Drizzle
3:20 AM 48.2 °F 46.4 °F 93% 30.15 in 4.0 mi NNW 11.5 mph - 0.00 in   Light Drizzle
3:54 AM 48.0 °F 46.0 °F 93% 30.16 in 3.0 mi North 12.7 mph - 0.01 in   Light Drizzle
4:54 AM 48.0 °F 46.9 °F 96% 30.16 in 5.0 mi North 12.7 mph - 0.01 in   Light Drizzle
5:54 AM 48.0 °F 46.0 °F 93% 30.16 in 6.0 mi North 12.7 mph - 0.00 in   Overcast
6:54 AM 48.0 °F 46.9 °F 96% 30.15 in 7.0 mi North 13.8 mph - N/A   Overcast
7:22 AM 48.2 °F 46.4 °F 93% 30.15 in 2.0 mi NNW 11.5 mph - 0.00 in Rain Light Rain
7:54 AM 48.0 °F 46.9 °F 96% 30.16 in 2.0 mi North 10.4 mph - 0.03 in Rain Light Rain
8:54 AM 48.9 °F 46.9 °F 93% 30.18 in 2.0 mi NNW 8.1 mph - 0.04 in Rain Light Rain
9:54 AM 50.0 °F 48.0 °F 93% 30.19 in 2.0 mi North 8.1 mph - 0.00 in   Overcast
10:54 AM 51.1 °F 50.0 °F 96% 30.18 in 3.0 mi North 10.4 mph - 0.00 in   Overcast
11:54 AM 54.0 °F 51.1 °F 90% 30.16 in 5.0 mi North 10.4 mph - N/A   Overcast
12:54 PM 55.0 °F 52.0 °F 89% 30.15 in 7.0 mi NNW 9.2 mph - N/A   Overcast
1:54 PM 55.9 °F 52.0 °F 87% 30.13 in 10.0 mi North 6.9 mph - N/A   Overcast
2:54 PM 55.9 °F 52.0 °F 87% 30.12 in 10.0 mi North 8.1 mph - N/A   Overcast
3:25 PM 59.0 °F 53.6 °F 82% 30.09 in 10.0 mi North 6.9 mph - N/A   Overcast
3:54 PM 57.9 °F 53.1 °F 84% 30.10 in 10.0 mi North 9.2 mph - N/A   Overcast
4:54 PM 57.9 °F 53.1 °F 84% 30.11 in 10.0 mi NNE 4.6 mph - N/A   Overcast
5:40 PM 57.2 °F 53.6 °F 88% 30.09 in 10.0 mi NNE 4.6 mph - N/A   Overcast
5:54 PM 57.9 °F 54.0 °F 87% 30.10 in 7.0 mi NNE 4.6 mph - 0.00 in Rain Light Rain
6:54 PM 57.0 °F 54.0 °F 89% 30.11 in 10.0 mi North 3.5 mph - 0.00 in   Overcast
7:54 PM 57.0 °F 54.0 °F 89% 30.10 in 10.0 mi North 3.5 mph - N/A   Overcast
8:54 PM 57.0 °F 54.0 °F 89% 30.10 in 10.0 mi North 4.6 mph - N/A   Overcast
9:54 PM 57.9 °F 54.0 °F 87% 30.10 in 10.0 mi NNW 3.5 mph - N/A   Overcast
10:54 PM 57.0 °F 54.0 °F 89% 30.09 in 10.0 mi Calm Calm - N/A   Overcast
11:54 PM 57.0 °F 54.0 °F 89% 30.08 in 10.0 mi NNW 3.5 mph - N/A   Overcast